Starlink 1767

operational
NORAD ID: 46345 Int'l Des: 2020-062 Owner: SPXS Country: US Constellation: starlink
LEOCIRCULAR

Über Starlink 1767

Beschreibung wird geladen...

Live-Position

3D-Globus wird geladen...

Nächste Überflüge

Höhenverlauf

Altitude vs Time

uPlot chart will show altitude changes over time

Zweizeiliger Elementsatz

1 46345U 20062W 25257.20082967 .00082531 00000-0 21018-2 0 9990
2 46345 53.0509 78.6009 0007618 192.3678 167.7139 15.38846151277859
Epoch: 14. Sept. 2025 • Age: 29 hours

Aktueller Status

Höhe 454.2 km
Geschwindigkeit 7.65 km/s
Subsatellitenpunkt 48.89°N, 59.13°E
Startdatum 3. Sept. 2020
Alter 5 years
Typ internet

Technische Details

Klassifizierung Payload
Masse 260.00 kg
Trockenmasse 248.00 kg
Gesamtmasse 260.00 kg
Länge 0.20 m
Durchmesser 2.80 m
Spannweite 9.00 m
Form Box + pan
Hersteller SPXS
Bus-Typ Starlink
Phasenstatus In Orbit
Besitzer/Staat SPXS/US

Große Konstellationen

Loading constellations...